Time,TemperatureF,DewpointF,PressureIn,WindDirection,WindDirectionDegrees,WindSpeedMPH,WindSpeedGustMPH,Humidity,HourlyPrecipIn,Conditions,Clouds,dailyrainin,SoftwareType,DateUTC
2013-07-28 00:01:00,68.3,60.5,29.95,North,356,0.0,0.0,76,0.00,,,0.00,VWS V13.01,2013-07-28 05:01:00,
2013-07-28 00:06:00,68.2,60.7,29.95,North,356,0.0,0.0,77,0.00,,,0.00,VWS V13.01,2013-07-28 05:06:00,
2013-07-28 00:10:00,68.0,60.9,29.95,North,356,0.0,0.0,78,0.00,,,0.00,VWS V13.01,2013-07-28 05:10:00,
2013-07-28 00:15:00,67.6,60.9,29.92,North,356,0.0,0.0,79,0.00,,,0.00,VWS V13.01,2013-07-28 05:15:00,
2013-07-28 00:20:00,67.3,60.5,29.92,North,356,0.0,0.0,79,0.00,,,0.00,VWS V13.01,2013-07-28 05:20:00,
2013-07-28 00:25:00,67.1,60.7,29.92,North,356,0.0,0.0,80,0.00,,,0.00,VWS V13.01,2013-07-28 05:25:00,
2013-07-28 00:30:00,66.9,60.5,29.95,North,356,0.0,0.0,80,0.00,,,0.00,VWS V13.01,2013-07-28 05:30:00,
2013-07-28 00:35:00,66.7,60.4,29.95,North,356,0.0,0.0,80,0.00,,,0.00,VWS V13.01,2013-07-28 05:35:00,
2013-07-28 00:40:00,66.5,60.5,29.95,North,356,0.0,0.0,81,0.00,,,0.00,VWS V13.01,2013-07-28 05:40:00,
2013-07-28 00:45:00,66.4,60.4,29.95,North,356,0.0,0.0,81,0.00,,,0.00,VWS V13.01,2013-07-28 05:45:00,
2013-07-28 00:50:00,66.2,60.5,29.95,ESE,105,0.0,0.0,82,0.00,,,0.00,VWS V13.01,2013-07-28 05:50:00,
2013-07-28 00:55:00,65.8,60.2,29.95,ESE,105,0.0,0.0,82,0.00,,,0.00,VWS V13.01,2013-07-28 05:55:00,
2013-07-28 01:00:00,65.8,61.5,29.95,ESE,105,0.0,0.0,86,0.00,,,0.00,VWS V13.01,2013-07-28 06:00:00,
2013-07-28 01:05:00,65.6,61.7,29.95,ESE,105,0.0,0.0,87,0.00,,,0.00,VWS V13.01,2013-07-28 06:05:00,
2013-07-28 01:10:00,65.6,62.3,29.95,ESE,105,0.0,0.0,89,0.00,,,0.00,VWS V13.01,2013-07-28 06:10:00,
2013-07-28 01:15:00,65.5,62.1,29.95,North,360,0.0,0.0,89,0.00,,,0.00,VWS V13.01,2013-07-28 06:15:00,
2013-07-28 01:20:00,65.5,62.1,29.95,North,360,0.0,0.0,89,0.00,,,0.00,VWS V13.01,2013-07-28 06:20:00,
2013-07-28 01:25:00,65.5,61.8,29.95,North,360,0.0,0.0,88,0.00,,,0.00,VWS V13.01,2013-07-28 06:25:00,
2013-07-28 01:30:00,65.3,61.6,29.95,North,360,0.0,0.0,88,0.00,,,0.00,VWS V13.01,2013-07-28 06:30:00,
2013-07-28 01:35:00,65.1,61.5,29.95,North,360,0.0,0.0,88,0.00,,,0.00,VWS V13.01,2013-07-28 06:35:00,
2013-07-28 01:40:00,64.9,61.6,29.95,North,360,0.0,0.0,89,0.00,,,0.00,VWS V13.01,2013-07-28 06:40:00,
2013-07-28 01:45:00,64.7,61.7,29.95,North,360,0.0,0.0,90,0.00,,,0.00,VWS V13.01,2013-07-28 06:45:00,
2013-07-28 01:50:00,64.7,61.7,29.95,North,360,0.0,0.0,90,0.00,,,0.00,VWS V13.01,2013-07-28 06:50:00,
2013-07-28 01:55:00,64.6,61.9,29.95,North,360,0.0,0.0,91,0.00,,,0.00,VWS V13.01,2013-07-28 06:55:00,
2013-07-28 02:00:00,64.6,61.6,29.95,North,360,0.0,0.0,90,0.00,,,0.00,VWS V13.01,2013-07-28 07:00:00,
2013-07-28 02:05:00,64.4,61.4,29.95,North,360,0.0,0.0,90,0.00,,,0.00,VWS V13.01,2013-07-28 07:05:00,
2013-07-28 02:10:00,64.4,61.4,29.95,North,360,0.0,0.0,90,0.00,,,0.00,VWS V13.01,2013-07-28 07:10:00,
2013-07-28 02:15:00,64.2,61.2,29.95,North,360,0.0,0.0,90,0.00,,,0.00,VWS V13.01,2013-07-28 07:15:00,
2013-07-28 02:20:00,64.2,61.2,29.95,North,360,0.0,0.0,90,0.00,,,0.00,VWS V13.01,2013-07-28 07:20:00,
2013-07-28 02:25:00,64.2,61.5,29.95,North,360,0.0,0.0,91,0.00,,,0.00,VWS V13.01,2013-07-28 07:25:00,
2013-07-28 02:30:00,64.0,61.3,29.95,North,360,0.0,0.0,91,0.00,,,0.00,VWS V13.01,2013-07-28 07:30:00,
2013-07-28 02:35:00,63.8,61.5,29.95,North,360,0.0,0.0,92,0.00,,,0.00,VWS V13.01,2013-07-28 07:35:00,
2013-07-28 02:40:00,63.8,62.4,29.95,North,360,0.0,0.0,95,0.00,,,0.00,VWS V13.01,2013-07-28 07:40:00,
2013-07-28 02:45:00,63.7,62.8,29.95,North,360,0.0,0.0,97,0.00,,,0.00,VWS V13.01,2013-07-28 07:45:00,
2013-07-28 02:50:00,63.7,62.8,29.95,North,360,0.0,0.0,97,0.00,,,0.00,VWS V13.01,2013-07-28 07:50:00,
2013-07-28 02:55:00,63.5,62.3,29.95,North,360,0.0,0.0,96,0.00,,,0.00,VWS V13.01,2013-07-28 07:55:00,
2013-07-28 03:00:00,63.5,62.3,29.95,North,360,0.0,0.0,96,0.00,,,0.00,VWS V13.01,2013-07-28 08:00:00,
2013-07-28 03:05:00,63.5,62.9,29.95,North,360,0.0,0.0,98,0.00,,,0.00,VWS V13.01,2013-07-28 08:05:00,
2013-07-28 03:10:00,63.5,63.2,29.95,North,360,0.0,0.0,99,0.00,,,0.00,VWS V13.01,2013-07-28 08:10:00,
2013-07-28 03:15:00,63.3,63.0,29.95,North,360,0.0,0.0,99,0.00,,,0.00,VWS V13.01,2013-07-28 08:15:00,
2013-07-28 03:20:00,63.3,63.3,29.95,North,360,0.0,0.0,100,0.00,,,0.00,VWS V13.01,2013-07-28 08:20:00,
2013-07-28 03:25:00,63.3,63.3,29.95,North,360,0.0,0.0,100,0.00,,,0.00,VWS V13.01,2013-07-28 08:25:00,
2013-07-28 03:30:00,63.3,63.3,29.95,North,360,0.0,0.0,100,0.00,,,0.00,VWS V13.01,2013-07-28 08:30:00,
2013-07-28 03:35:00,63.3,63.3,29.95,North,360,0.0,0.0,100,0.00,,,0.00,VWS V13.01,2013-07-28 08:35:00,
2013-07-28 03:40:00,63.3,63.3,29.95,North,360,0.0,0.0,100,0.00,,,0.00,VWS V13.01,2013-07-28 08:40:00,
2013-07-28 03:45:00,63.3,63.3,29.95,North,360,0.0,0.0,100,0.00,,,0.00,VWS V13.01,2013-07-28 08:45:00,
2013-07-28 03:50:00,63.3,63.3,29.95,North,360,0.0,0.0,100,0.00,,,0.00,VWS V13.01,2013-07-28 08:50:00,
2013-07-28 03:55:00,63.1,63.1,29.95,North,360,0.0,0.0,100,0.00,,,0.00,VWS V13.01,2013-07-28 08:55:00,
2013-07-28 04:00:00,63.1,63.1,29.95,NNE,20,0.0,0.0,100,0.00,,,0.00,VWS V13.01,2013-07-28 09:00:00,
2013-07-28 04:05:00,63.1,63.1,29.95,NNE,20,0.0,0.0,100,0.00,,,0.00,VWS V13.01,2013-07-28 09:05:00,
2013-07-28 04:10:00,63.1,62.8,29.95,NNE,24,0.0,0.0,99,0.00,,,0.00,VWS V13.01,2013-07-28 09:10:00,
2013-07-28 04:15:00,62.9,62.4,29.95,NNE,24,0.0,0.0,98,0.00,,,0.00,VWS V13.01,2013-07-28 09:15:00,
2013-07-28 04:20:00,62.9,62.4,29.95,NNE,24,0.0,0.0,98,0.00,,,0.00,VWS V13.01,2013-07-28 09:20:00,
2013-07-28 04:25:00,62.9,62.1,29.95,NNE,24,0.0,0.0,97,0.00,,,0.00,VWS V13.01,2013-07-28 09:25:00,
2013-07-28 04:30:00,62.8,61.9,29.95,NNE,24,0.0,0.0,97,0.00,,,0.00,VWS V13.01,2013-07-28 09:30:00,
2013-07-28 04:35:00,62.8,61.9,29.95,NNE,24,0.0,0.0,97,0.00,,,0.00,VWS V13.01,2013-07-28 09:35:00,
2013-07-28 04:40:00,62.8,61.9,29.95,NNE,24,0.0,0.0,97,0.00,,,0.00,VWS V13.01,2013-07-28 09:40:00,
2013-07-28 04:45:00,62.8,62.2,29.95,NNE,24,0.0,0.0,98,0.00,,,0.00,VWS V13.01,2013-07-28 09:45:00,
2013-07-28 04:50:00,62.6,62.0,29.95,NNE,24,0.0,0.0,98,0.00,,,0.00,VWS V13.01,2013-07-28 09:50:00,
2013-07-28 04:55:00,62.4,61.5,29.95,NNE,24,0.0,0.0,97,0.00,,,0.00,VWS V13.01,2013-07-28 09:55:00,
2013-07-28 05:00:00,62.6,61.4,29.95,NNE,24,0.0,0.0,96,0.00,,,0.00,VWS V13.01,2013-07-28 10:00:00,
2013-07-28 05:05:00,62.6,61.1,29.95,NNE,24,0.0,0.0,95,0.00,,,0.00,VWS V13.01,2013-07-28 10:05:00,
2013-07-28 05:10:00,62.6,60.8,29.95,NNE,24,0.0,0.0,94,0.00,,,0.00,VWS V13.01,2013-07-28 10:10:00,
2013-07-28 05:15:00,62.8,61.0,29.95,NNE,24,0.0,0.0,94,0.00,,,0.00,VWS V13.01,2013-07-28 10:15:00,
2013-07-28 05:20:00,62.8,61.0,29.95,NNE,24,0.0,0.0,94,0.00,,,0.00,VWS V13.01,2013-07-28 10:20:00,
2013-07-28 05:25:00,62.8,60.7,29.95,NNE,24,0.0,0.0,93,0.00,,,0.00,VWS V13.01,2013-07-28 10:25:00,
2013-07-28 05:30:00,62.8,61.0,29.95,NNE,24,0.0,0.0,94,0.00,,,0.00,VWS V13.01,2013-07-28 10:30:00,
2013-07-28 05:35:00,62.9,60.9,29.95,NNE,24,0.0,0.0,93,0.00,,,0.00,VWS V13.01,2013-07-28 10:35:00,
2013-07-28 05:40:00,62.9,60.9,29.95,NNE,24,0.0,0.0,93,0.00,,,0.00,VWS V13.01,2013-07-28 10:40:00,
2013-07-28 05:45:00,62.9,60.6,29.95,NNE,24,0.0,0.0,92,0.00,,,0.00,VWS V13.01,2013-07-28 10:45:00,
2013-07-28 05:50:00,62.8,60.4,29.95,NNE,24,0.0,0.0,92,0.00,,,0.00,VWS V13.01,2013-07-28 10:50:00,
2013-07-28 05:55:00,62.8,60.1,29.95,NNE,23,0.0,0.0,91,0.00,,,0.00,VWS V13.01,2013-07-28 10:55:00,
2013-07-28 06:00:00,62.8,60.4,29.95,NNE,23,0.0,0.0,92,0.00,,,0.00,VWS V13.01,2013-07-28 11:00:00,
2013-07-28 06:05:00,62.6,60.2,29.95,NNE,23,0.0,0.0,92,0.00,,,0.00,VWS V13.01,2013-07-28 11:05:00,
2013-07-28 06:10:00,62.6,60.2,29.95,NNE,23,0.0,0.0,92,0.00,,,0.00,VWS V13.01,2013-07-28 11:10:00,
2013-07-28 06:15:00,62.4,60.3,29.98,NNE,23,0.0,0.0,93,0.00,,,0.00,VWS V13.01,2013-07-28 11:15:00,
2013-07-28 06:20:00,62.4,60.7,29.98,NNE,23,0.0,0.0,94,0.00,,,0.00,VWS V13.01,2013-07-28 11:20:00,
2013-07-28 06:24:00,62.2,60.8,29.98,North,2,0.0,0.0,95,0.00,,,0.00,VWS V13.01,2013-07-28 11:24:00,
2013-07-28 06:29:00,62.2,60.8,29.98,North,2,0.0,0.0,95,0.00,,,0.00,VWS V13.01,2013-07-28 11:29:00,
2013-07-28 06:34:00,62.2,60.8,29.98,NNE,27,2.2,2.7,95,0.00,,,0.00,VWS V13.01,2013-07-28 11:34:00,
2013-07-28 06:39:00,62.4,60.3,29.98,NNE,25,3.6,4.0,93,0.00,,,0.00,VWS V13.01,2013-07-28 11:39:00,
2013-07-28 06:44:00,62.4,60.0,29.98,NE,41,2.2,2.2,92,0.00,,,0.00,VWS V13.01,2013-07-28 11:44:00,
2013-07-28 06:49:00,62.4,60.7,29.98,NE,41,2.7,2.7,94,0.00,,,0.00,VWS V13.01,2013-07-28 11:49:00,
2013-07-28 06:54:00,62.4,60.7,29.98,NE,36,2.2,2.7,94,0.00,,,0.00,VWS V13.01,2013-07-28 11:54:00,
2013-07-28 06:59:00,62.4,60.7,29.98,NE,36,2.2,2.7,94,0.00,,,0.00,VWS V13.01,2013-07-28 11:59:00,
2013-07-28 07:04:00,62.6,60.5,29.98,NE,36,0.0,2.7,93,0.00,,,0.00,VWS V13.01,2013-07-28 12:04:00,
2013-07-28 07:09:00,62.6,60.2,29.98,NE,36,0.0,0.0,92,0.00,,,0.00,VWS V13.01,2013-07-28 12:09:00,
2013-07-28 07:14:00,62.8,60.1,29.98,NE,36,0.0,0.0,91,0.00,,,0.00,VWS V13.01,2013-07-28 12:14:00,
2013-07-28 07:19:00,62.9,60.3,29.98,NE,36,0.0,0.0,91,0.00,,,0.00,VWS V13.01,2013-07-28 12:19:00,
2013-07-28 07:24:00,63.1,60.5,29.98,NE,36,0.0,0.0,91,0.00,,,0.00,VWS V13.01,2013-07-28 12:24:00,
2013-07-28 07:29:00,63.1,60.5,29.98,ENE,78,0.0,0.0,91,0.00,,,0.00,VWS V13.01,2013-07-28 12:29:00,
2013-07-28 07:34:00,63.3,60.6,29.98,ESE,117,2.2,2.2,91,0.00,,,0.00,VWS V13.01,2013-07-28 12:34:00,
2013-07-28 07:39:00,63.3,60.6,29.98,ESE,117,0.0,0.0,91,0.00,,,0.00,VWS V13.01,2013-07-28 12:39:00,
2013-07-28 07:44:00,63.5,60.8,29.98,NW,307,0.0,2.2,91,0.00,,,0.00,VWS V13.01,2013-07-28 12:44:00,
2013-07-28 07:49:00,63.5,60.8,29.98,NW,307,0.0,0.0,91,0.00,,,0.00,VWS V13.01,2013-07-28 12:49:00,
2013-07-28 07:54:00,63.7,61.0,29.98,NW,307,0.0,0.0,91,0.00,,,0.00,VWS V13.01,2013-07-28 12:54:00,
2013-07-28 07:59:00,64.2,61.2,30.01,North,1,2.2,2.7,90,0.00,,,0.00,VWS V13.01,2013-07-28 12:59:00,
2013-07-28 08:04:00,64.7,60.5,30.01,NNE,27,2.7,3.6,86,0.00,,,0.00,VWS V13.01,2013-07-28 13:04:00,
2013-07-28 08:09:00,65.5,60.2,30.01,NNE,21,0.0,2.2,83,0.00,,,0.00,VWS V13.01,2013-07-28 13:09:00,
2013-07-28 08:14:00,65.8,59.8,30.01,NNE,21,0.0,0.0,81,0.00,,,0.00,VWS V13.01,2013-07-28 13:14:00,
2013-07-28 08:19:00,66.0,59.3,30.01,NNE,17,0.0,0.0,79,0.00,,,0.00,VWS V13.01,2013-07-28 13:19:00,
2013-07-28 08:24:00,66.5,60.2,30.01,NNE,17,0.0,0.0,80,0.00,,,0.00,VWS V13.01,2013-07-28 13:24:00,
2013-07-28 08:29:00,67.3,61.2,30.01,ENE,68,0.0,0.0,81,0.00,,,0.00,VWS V13.01,2013-07-28 13:29:00,
2013-07-28 08:34:00,68.3,60.5,30.01,ENE,64,0.0,0.0,76,0.00,,,0.00,VWS V13.01,2013-07-28 13:34:00,
2013-07-28 08:39:00,69.2,59.0,30.01,East,84,0.0,2.7,70,0.00,,,0.00,VWS V13.01,2013-07-28 13:39:00,
2013-07-28 08:44:00,69.6,57.3,30.01,East,95,2.2,3.6,65,0.00,,,0.00,VWS V13.01,2013-07-28 13:44:00,
2013-07-28 08:49:00,69.8,57.5,30.01,ESE,108,3.1,3.6,65,0.00,,,0.00,VWS V13.01,2013-07-28 13:49:00,
2013-07-28 08:54:00,70.5,57.8,30.01,East,91,0.0,0.0,64,0.00,,,0.00,VWS V13.01,2013-07-28 13:54:00,
2013-07-28 08:59:00,71.0,56.5,30.01,NNE,20,3.6,4.0,60,0.00,,,0.00,VWS V13.01,2013-07-28 13:59:00,
2013-07-28 09:04:00,71.6,57.0,30.01,NNE,19,2.2,3.1,60,0.00,,,0.00,VWS V13.01,2013-07-28 14:04:00,
2013-07-28 09:09:00,71.9,56.8,30.01,NE,54,2.7,2.7,59,0.00,,,0.00,VWS V13.01,2013-07-28 14:09:00,
2013-07-28 09:14:00,72.7,57.5,30.01,SE,143,4.0,4.0,59,0.00,,,0.00,VWS V13.01,2013-07-28 14:14:00,
2013-07-28 09:19:00,72.8,54.7,30.01,SE,130,5.4,8.1,53,0.00,,,0.00,VWS V13.01,2013-07-28 14:19:00,
2013-07-28 09:24:00,72.1,54.1,30.01,ENE,67,2.7,2.7,53,0.00,,,0.00,VWS V13.01,2013-07-28 14:24:00,
2013-07-28 09:29:00,71.9,54.4,30.01,ENE,71,2.7,3.6,54,0.00,,,0.00,VWS V13.01,2013-07-28 14:29:00,
2013-07-28 09:34:00,71.9,54.4,30.01,East,96,3.1,3.6,54,0.00,,,0.00,VWS V13.01,2013-07-28 14:34:00,
2013-07-28 09:39:00,72.1,55.1,30.01,ESE,114,0.0,2.2,55,0.00,,,0.00,VWS V13.01,2013-07-28 14:39:00,
2013-07-28 09:44:00,72.7,55.6,30.01,ESE,116,0.0,0.0,55,0.00,,,0.00,VWS V13.01,2013-07-28 14:44:00,
2013-07-28 09:49:00,73.0,54.9,30.01,ENE,77,4.9,6.3,53,0.00,,,0.00,VWS V13.01,2013-07-28 14:49:00,
2013-07-28 09:54:00,73.0,54.9,30.01,East,89,3.6,5.4,53,0.00,,,0.00,VWS V13.01,2013-07-28 14:54:00,
2013-07-28 09:59:00,73.0,54.4,30.01,ENE,66,5.4,6.3,52,0.00,,,0.00,VWS V13.01,2013-07-28 14:59:00,
2013-07-28 10:04:00,73.2,55.1,30.01,East,97,3.1,4.0,53,0.00,,,0.00,VWS V13.01,2013-07-28 15:04:00,
2013-07-28 10:09:00,73.4,54.7,30.01,East,86,3.1,3.6,52,0.00,,,0.00,VWS V13.01,2013-07-28 15:09:00,
2013-07-28 10:14:00,73.4,54.7,30.01,ENE,62,3.6,3.6,52,0.00,,,0.00,VWS V13.01,2013-07-28 15:14:00,
2013-07-28 10:19:00,73.4,54.7,30.01,East,80,4.0,4.9,52,0.00,,,0.00,VWS V13.01,2013-07-28 15:19:00,
2013-07-28 10:24:00,73.4,55.2,30.01,ENE,75,2.7,3.6,53,0.00,,,0.00,VWS V13.01,2013-07-28 15:24:00,
2013-07-28 10:29:00,73.7,55.0,30.01,East,81,2.7,2.7,52,0.00,,,0.00,VWS V13.01,2013-07-28 15:29:00,
2013-07-28 10:34:00,74.1,55.9,30.01,East,100,4.0,4.9,53,0.00,,,0.00,VWS V13.01,2013-07-28 15:34:00,
2013-07-28 10:39:00,73.7,54.5,30.01,ESE,112,4.0,5.8,51,0.00,,,0.00,VWS V13.01,2013-07-28 15:39:00,
2013-07-28 10:44:00,73.4,54.7,30.01,ESE,106,3.6,5.4,52,0.00,,,0.00,VWS V13.01,2013-07-28 15:44:00,
2013-07-28 10:49:00,73.2,55.1,30.01,SE,131,5.8,5.8,53,0.00,,,0.00,VWS V13.01,2013-07-28 15:49:00,
2013-07-28 10:54:00,73.2,54.5,30.01,ESE,123,4.0,4.0,52,0.00,,,0.00,VWS V13.01,2013-07-28 15:54:00,
2013-07-28 10:59:00,73.4,55.2,30.01,ENE,60,3.6,3.6,53,0.00,,,0.00,VWS V13.01,2013-07-28 15:59:00,
2013-07-28 11:04:00,73.9,55.7,30.01,ESE,115,3.6,3.6,53,0.00,,,0.00,VWS V13.01,2013-07-28 16:04:00,
2013-07-28 11:09:00,74.8,56.0,30.01,South,171,3.6,3.6,52,0.00,,,0.00,VWS V13.01,2013-07-28 16:09:00,
2013-07-28 11:14:00,75.4,56.0,30.01,East,94,4.0,5.8,51,0.00,,,0.00,VWS V13.01,2013-07-28 16:14:00,
2013-07-28 11:19:00,75.2,55.8,30.01,ENE,71,6.3,7.2,51,0.00,,,0.00,VWS V13.01,2013-07-28 16:19:00,
2013-07-28 11:24:00,75.4,56.0,30.01,North,6,3.6,5.4,51,0.00,,,0.00,VWS V13.01,2013-07-28 16:24:00,
2013-07-28 11:29:00,75.7,56.3,30.01,South,174,5.8,5.8,51,0.00,,,0.00,VWS V13.01,2013-07-28 16:29:00,
2013-07-28 11:34:00,75.5,56.7,30.01,SSE,150,3.6,4.0,52,0.00,,,0.00,VWS V13.01,2013-07-28 16:34:00,
2013-07-28 11:39:00,76.6,57.7,30.01,NNE,31,3.1,5.4,52,0.00,,,0.00,VWS V13.01,2013-07-28 16:39:00,
2013-07-28 11:44:00,77.2,57.7,29.98,SE,143,4.9,4.9,51,0.00,,,0.00,VWS V13.01,2013-07-28 16:44:00,
2013-07-28 11:49:00,76.8,57.3,29.98,SE,130,2.2,4.9,51,0.00,,,0.00,VWS V13.01,2013-07-28 16:49:00,
2013-07-28 11:54:00,77.2,57.7,29.98,SE,131,5.4,5.4,51,0.00,,,0.00,VWS V13.01,2013-07-28 16:54:00,
2013-07-28 11:59:00,77.2,57.1,29.98,SE,128,8.7,8.7,50,0.00,,,0.00,VWS V13.01,2013-07-28 16:59:00,
2013-07-28 12:04:00,77.3,57.8,29.98,ENE,77,3.1,3.6,51,0.00,,,0.00,VWS V13.01,2013-07-28 17:04:00,
2013-07-28 12:09:00,78.2,58.7,29.98,East,81,5.8,5.8,51,0.00,,,0.00,VWS V13.01,2013-07-28 17:09:00,
2013-07-28 12:14:00,77.9,57.8,29.98,ESE,122,4.9,4.9,50,0.00,,,0.00,VWS V13.01,2013-07-28 17:14:00,
2013-07-28 12:19:00,77.0,57.5,29.98,ESE,122,2.7,3.1,51,0.00,,,0.00,VWS V13.01,2013-07-28 17:19:00,
2013-07-28 12:24:00,77.2,57.7,29.98,SSE,150,3.6,3.6,51,0.00,,,0.00,VWS V13.01,2013-07-28 17:24:00,
2013-07-28 12:29:00,77.5,58.0,29.98,SSE,167,3.6,3.6,51,0.00,,,0.00,VWS V13.01,2013-07-28 17:29:00,
2013-07-28 12:34:00,77.5,57.4,29.98,SE,138,6.3,6.7,50,0.00,,,0.00,VWS V13.01,2013-07-28 17:34:00,
2013-07-28 12:39:00,77.3,57.3,29.98,East,86,3.6,3.6,50,0.00,,,0.00,VWS V13.01,2013-07-28 17:39:00,
2013-07-28 12:44:00,77.5,58.0,29.98,ENE,74,2.7,2.7,51,0.00,,,0.00,VWS V13.01,2013-07-28 17:44:00,
2013-07-28 12:49:00,77.9,57.8,29.98,East,93,2.7,3.1,50,0.00,,,0.00,VWS V13.01,2013-07-28 17:49:00,
2013-07-28 12:54:00,77.9,57.8,29.98,ENE,65,3.6,3.6,50,0.00,,,0.00,VWS V13.01,2013-07-28 17:54:00,
2013-07-28 12:59:00,78.4,58.3,29.98,NW,325,2.2,2.7,50,0.00,,,0.00,VWS V13.01,2013-07-28 17:59:00,
2013-07-28 13:04:00,79.1,58.9,29.98,NNE,22,3.1,3.1,50,0.00,,,0.00,VWS V13.01,2013-07-28 18:04:00,
2013-07-28 13:09:00,79.5,58.7,29.98,ESE,120,3.6,3.6,49,0.00,,,0.00,VWS V13.01,2013-07-28 18:09:00,
2013-07-28 13:13:00,79.5,58.7,29.98,SE,132,3.6,5.4,49,0.00,,,0.00,VWS V13.01,2013-07-28 18:13:00,
2013-07-28 13:18:00,79.5,58.7,29.98,ESE,120,4.0,4.0,49,0.00,,,0.00,VWS V13.01,2013-07-28 18:18:00,
2013-07-28 13:23:00,79.3,58.5,29.98,ESE,118,2.2,2.7,49,0.00,,,0.00,VWS V13.01,2013-07-28 18:23:00,
2013-07-28 13:28:00,79.7,58.8,29.98,ESE,117,4.9,4.9,49,0.00,,,0.00,VWS V13.01,2013-07-28 18:28:00,
2013-07-28 13:33:00,79.9,59.6,29.98,SSE,153,4.0,4.0,50,0.00,,,0.00,VWS V13.01,2013-07-28 18:33:00,
2013-07-28 13:38:00,79.7,59.4,29.98,East,87,3.1,3.1,50,0.00,,,0.00,VWS V13.01,2013-07-28 18:38:00,
2013-07-28 13:43:00,79.9,59.6,29.98,SE,125,3.1,3.6,50,0.00,,,0.00,VWS V13.01,2013-07-28 18:43:00,
2013-07-28 13:48:00,79.9,59.6,29.98,SE,135,4.0,5.8,50,0.00,,,0.00,VWS V13.01,2013-07-28 18:48:00,
2013-07-28 13:53:00,79.9,59.0,29.98,South,188,4.9,4.9,49,0.00,,,0.00,VWS V13.01,2013-07-28 18:53:00,
2013-07-28 13:58:00,79.7,59.4,29.98,South,171,2.7,2.7,50,0.00,,,0.00,VWS V13.01,2013-07-28 18:58:00,
2013-07-28 14:03:00,80.2,59.9,29.98,West,270,3.6,3.6,50,0.00,,,0.00,VWS V13.01,2013-07-28 19:03:00,
2013-07-28 14:08:00,80.2,59.9,29.98,WNW,292,2.7,2.7,50,0.00,,,0.00,VWS V13.01,2013-07-28 19:08:00,
2013-07-28 14:13:00,80.4,59.5,29.98,South,178,5.4,5.4,49,0.00,,,0.00,VWS V13.01,2013-07-28 19:13:00,
2013-07-28 14:18:00,80.2,59.3,29.95,NNW,340,2.2,4.0,49,0.00,,,0.00,VWS V13.01,2013-07-28 19:18:00,
2013-07-28 14:23:00,80.9,60.0,29.95,SW,223,3.1,3.1,49,0.00,,,0.00,VWS V13.01,2013-07-28 19:23:00,
2013-07-28 14:28:00,80.9,60.0,29.98,SW,236,2.7,3.1,49,0.00,,,0.00,VWS V13.01,2013-07-28 19:28:00,
2013-07-28 14:33:00,81.1,60.2,29.98,South,172,4.0,4.0,49,0.00,,,0.00,VWS V13.01,2013-07-28 19:33:00,
2013-07-28 14:38:00,80.8,59.8,29.98,SSE,160,3.1,3.1,49,0.00,,,0.00,VWS V13.01,2013-07-28 19:38:00,
2013-07-28 14:43:00,80.8,59.8,29.98,East,80,3.1,3.6,49,0.00,,,0.00,VWS V13.01,2013-07-28 19:43:00,
2013-07-28 14:48:00,81.1,60.2,29.95,NNW,334,0.0,2.7,49,0.00,,,0.00,VWS V13.01,2013-07-28 19:48:00,
2013-07-28 14:53:00,82.0,61.0,29.95,NNE,12,3.6,3.6,49,0.00,,,0.00,VWS V13.01,2013-07-28 19:53:00,
2013-07-28 14:58:00,82.6,60.3,29.95,NNW,335,2.2,6.3,47,0.00,,,0.00,VWS V13.01,2013-07-28 19:58:00,
2013-07-28 15:03:00,82.9,60.0,29.95,NNE,29,3.6,3.6,46,0.00,,,0.00,VWS V13.01,2013-07-28 20:03:00,
2013-07-28 15:08:00,82.9,60.6,29.95,SW,233,2.7,2.7,47,0.00,,,0.00,VWS V13.01,2013-07-28 20:08:00,
2013-07-28 15:13:00,82.7,61.1,29.95,NNW,341,2.2,2.7,48,0.00,,,0.00,VWS V13.01,2013-07-28 20:13:00,
2013-07-28 15:18:00,82.9,61.2,29.95,NE,50,4.0,4.0,48,0.00,,,0.00,VWS V13.01,2013-07-28 20:18:00,
2013-07-28 15:23:00,83.1,62.0,29.95,NE,50,2.7,3.1,49,0.00,,,0.00,VWS V13.01,2013-07-28 20:23:00,
2013-07-28 15:28:00,83.8,62.1,29.95,ENE,77,2.2,2.7,48,0.00,,,0.00,VWS V13.01,2013-07-28 20:28:00,
2013-07-28 15:33:00,84.2,61.2,29.95,NNE,33,3.6,3.6,46,0.00,,,0.00,VWS V13.01,2013-07-28 20:33:00,
2013-07-28 15:38:00,84.0,61.0,29.95,South,176,3.1,4.9,46,0.00,,,0.00,VWS V13.01,2013-07-28 20:38:00,
2013-07-28 15:43:00,83.6,60.7,29.95,WNW,296,3.1,4.0,46,0.00,,,0.00,VWS V13.01,2013-07-28 20:43:00,
2013-07-28 15:48:00,84.0,60.4,29.95,NNW,333,2.7,3.1,45,0.00,,,0.00,VWS V13.01,2013-07-28 20:48:00,
2013-07-28 15:53:00,84.4,60.1,29.95,WNW,295,0.0,2.2,44,0.00,,,0.00,VWS V13.01,2013-07-28 20:53:00,
2013-07-28 15:58:00,85.3,63.4,29.95,West,279,4.0,4.0,48,0.00,,,0.00,VWS V13.01,2013-07-28 20:58:00,
2013-07-28 16:03:00,85.4,62.3,29.95,NW,308,3.1,3.6,46,0.00,,,0.00,VWS V13.01,2013-07-28 21:03:00,
2013-07-28 16:08:00,84.7,62.3,29.95,West,259,2.7,3.1,47,0.00,,,0.00,VWS V13.01,2013-07-28 21:08:00,
2013-07-28 16:13:00,84.4,60.7,29.95,West,281,0.0,3.1,45,0.00,,,0.00,VWS V13.01,2013-07-28 21:13:00,
2013-07-28 16:18:00,84.5,62.1,29.95,NE,51,2.7,5.4,47,0.00,,,0.00,VWS V13.01,2013-07-28 21:18:00,
2013-07-28 16:23:00,84.9,61.2,29.95,NNW,329,2.7,4.9,45,0.00,,,0.00,VWS V13.01,2013-07-28 21:23:00,
2013-07-28 16:28:00,85.3,60.9,29.95,NNE,19,4.0,4.0,44,0.00,,,0.00,VWS V13.01,2013-07-28 21:28:00,
2013-07-28 16:33:00,85.1,60.7,29.95,NNW,344,2.2,3.6,44,0.00,,,0.00,VWS V13.01,2013-07-28 21:33:00,
2013-07-28 16:38:00,85.4,61.1,29.95,WNW,287,0.0,0.0,44,0.00,,,0.00,VWS V13.01,2013-07-28 21:38:00,
2013-07-28 16:43:00,85.8,61.4,29.95,NNE,27,2.2,2.2,44,0.00,,,0.00,VWS V13.01,2013-07-28 21:43:00,
2013-07-28 16:48:00,85.8,60.1,29.95,WNW,294,3.1,3.1,42,0.00,,,0.00,VWS V13.01,2013-07-28 21:48:00,
2013-07-28 16:53:00,85.8,62.0,29.95,North,2,2.2,2.2,45,0.00,,,0.00,VWS V13.01,2013-07-28 21:53:00,
2013-07-28 16:58:00,86.2,61.7,29.92,NNW,348,3.1,3.1,44,0.00,,,0.00,VWS V13.01,2013-07-28 21:58:00,
2013-07-28 17:03:00,86.2,62.3,29.92,NNE,15,0.0,2.2,45,0.00,,,0.00,VWS V13.01,2013-07-28 22:03:00,
2013-07-28 17:08:00,86.5,62.7,29.92,NNE,28,3.1,3.1,45,0.00,,,0.00,VWS V13.01,2013-07-28 22:08:00,
2013-07-28 17:13:00,86.3,61.2,29.92,NE,48,2.7,2.7,43,0.00,,,0.00,VWS V13.01,2013-07-28 22:13:00,
2013-07-28 17:18:00,85.8,61.4,29.95,NNE,12,2.2,2.7,44,0.00,,,0.00,VWS V13.01,2013-07-28 22:18:00,
2013-07-28 17:23:00,85.6,59.9,29.95,North,5,2.7,4.0,42,0.00,,,0.00,VWS V13.01,2013-07-28 22:23:00,
2013-07-28 17:28:00,85.1,60.7,29.95,North,354,2.2,2.2,44,0.00,,,0.00,VWS V13.01,2013-07-28 22:28:00,
2013-07-28 17:33:00,84.7,60.4,29.95,NNW,327,0.0,0.0,44,0.00,,,0.00,VWS V13.01,2013-07-28 22:33:00,
2013-07-28 17:38:00,84.5,61.5,29.95,NNE,17,2.2,2.2,46,0.00,,,0.00,VWS V13.01,2013-07-28 22:38:00,
2013-07-28 17:43:00,84.2,61.8,29.95,North,2,3.6,5.4,47,0.00,,,0.00,VWS V13.01,2013-07-28 22:43:00,
2013-07-28 17:48:00,83.8,62.6,29.95,NNE,15,3.1,3.1,49,0.00,,,0.00,VWS V13.01,2013-07-28 22:48:00,
2013-07-28 17:53:00,83.5,62.3,29.95,NNE,12,2.2,2.7,49,0.00,,,0.00,VWS V13.01,2013-07-28 22:53:00,
2013-07-28 17:58:00,83.1,62.0,29.95,North,7,3.6,5.4,49,0.00,,,0.00,VWS V13.01,2013-07-28 22:58:00,
2013-07-28 18:03:00,82.9,61.8,29.92,North,354,3.6,3.6,49,0.00,,,0.00,VWS V13.01,2013-07-28 23:03:00,
2013-07-28 18:08:00,82.7,62.2,29.92,North,350,4.0,4.9,50,0.00,,,0.00,VWS V13.01,2013-07-28 23:08:00,
2013-07-28 18:13:00,82.6,61.5,29.92,NNE,16,2.7,2.7,49,0.00,,,0.00,VWS V13.01,2013-07-28 23:13:00,
2013-07-28 18:18:00,82.7,61.7,29.95,North,359,4.9,4.9,49,0.00,,,0.00,VWS V13.01,2013-07-28 23:18:00,
2013-07-28 18:23:00,82.6,61.5,29.95,North,356,0.0,0.0,49,0.00,,,0.00,VWS V13.01,2013-07-28 23:23:00,
2013-07-28 18:28:00,82.4,61.3,29.95,NNE,32,3.6,3.6,49,0.00,,,0.00,VWS V13.01,2013-07-28 23:28:00,
2013-07-28 18:33:00,82.0,61.0,29.95,ENE,71,3.6,3.6,49,0.00,,,0.00,VWS V13.01,2013-07-28 23:33:00,
2013-07-28 18:38:00,82.2,61.7,29.95,NE,45,2.7,3.1,50,0.00,,,0.00,VWS V13.01,2013-07-28 23:38:00,
2013-07-28 18:43:00,82.4,61.9,29.95,NE,34,3.1,3.1,50,0.00,,,0.00,VWS V13.01,2013-07-28 23:43:00,
2013-07-28 18:48:00,82.9,62.4,29.95,NNE,22,3.1,3.1,50,0.00,,,0.00,VWS V13.01,2013-07-28 23:48:00,
2013-07-28 18:53:00,83.1,62.0,29.95,NNE,29,3.1,4.0,49,0.00,,,0.00,VWS V13.01,2013-07-28 23:53:00,
2013-07-28 18:58:00,82.9,61.8,29.95,NE,34,3.1,3.1,49,0.00,,,0.00,VWS V13.01,2013-07-28 23:58:00,
2013-07-28 19:03:00,82.7,61.7,29.95,NE,37,3.1,4.0,49,0.00,,,0.00,VWS V13.01,2013-07-29 00:03:00,
2013-07-28 19:08:00,82.2,61.7,29.95,NNE,22,7.6,7.6,50,0.00,,,0.00,VWS V13.01,2013-07-29 00:08:00,
2013-07-28 19:13:00,81.5,61.6,29.95,NNW,346,3.6,3.6,51,0.00,,,0.00,VWS V13.01,2013-07-29 00:13:00,
2013-07-28 19:18:00,81.3,61.5,29.95,NNE,28,2.7,3.1,51,0.00,,,0.00,VWS V13.01,2013-07-29 00:18:00,
2013-07-28 19:23:00,80.9,61.1,29.95,NNE,30,4.0,4.9,51,0.00,,,0.00,VWS V13.01,2013-07-29 00:23:00,
2013-07-28 19:28:00,80.8,61.0,29.95,NNE,26,4.0,6.3,51,0.00,,,0.00,VWS V13.01,2013-07-29 00:28:00,
2013-07-28 19:33:00,80.4,61.2,29.95,NE,34,3.6,3.6,52,0.00,,,0.00,VWS V13.01,2013-07-29 00:33:00,
2013-07-28 19:38:00,80.2,61.5,29.95,NNE,28,4.0,4.0,53,0.00,,,0.00,VWS V13.01,2013-07-29 00:38:00,
2013-07-28 19:43:00,80.0,61.4,29.95,NE,35,3.1,4.0,53,0.00,,,0.00,VWS V13.01,2013-07-29 00:43:00,
2013-07-28 19:48:00,79.7,61.6,29.95,NNE,13,3.1,4.0,54,0.00,,,0.00,VWS V13.01,2013-07-29 00:48:00,
2013-07-28 19:53:00,79.5,61.4,29.95,North,11,5.4,5.4,54,0.00,,,0.00,VWS V13.01,2013-07-29 00:53:00,
2013-07-28 19:58:00,79.1,61.1,29.98,NNE,24,2.7,5.4,54,0.00,,,0.00,VWS V13.01,2013-07-29 00:58:00,
2013-07-28 20:03:00,79.0,61.4,29.98,North,359,2.7,3.6,55,0.00,,,0.00,VWS V13.01,2013-07-29 01:03:00,
2013-07-28 20:08:00,78.4,60.9,29.98,NNE,14,4.0,4.0,55,0.00,,,0.00,VWS V13.01,2013-07-29 01:08:00,
2013-07-28 20:13:00,78.2,61.3,29.98,NNE,30,2.7,3.6,56,0.00,,,0.00,VWS V13.01,2013-07-29 01:13:00,
2013-07-28 20:18:00,77.9,61.4,29.98,NE,41,2.7,2.7,57,0.00,,,0.00,VWS V13.01,2013-07-29 01:18:00,
2013-07-28 20:23:00,77.5,61.6,29.98,NNE,29,2.7,4.0,58,0.00,,,0.00,VWS V13.01,2013-07-29 01:23:00,
2013-07-28 20:28:00,77.2,61.7,29.98,NNE,27,2.7,2.7,59,0.00,,,0.00,VWS V13.01,2013-07-29 01:28:00,
2013-07-28 20:33:00,77.0,62.0,29.98,NNE,20,3.6,4.0,60,0.00,,,0.00,VWS V13.01,2013-07-29 01:33:00,
2013-07-28 20:38:00,76.6,62.2,29.98,North,10,2.7,2.7,61,0.00,,,0.00,VWS V13.01,2013-07-29 01:38:00,
2013-07-28 20:43:00,76.4,62.0,29.98,NNE,20,3.6,3.6,61,0.00,,,0.00,VWS V13.01,2013-07-29 01:43:00,
2013-07-28 20:48:00,76.3,61.8,29.98,NE,38,3.1,3.1,61,0.00,,,0.00,VWS V13.01,2013-07-29 01:48:00,
2013-07-28 20:54:00,75.9,61.5,29.98,NNE,26,3.1,3.6,61,0.00,,,0.00,VWS V13.01,2013-07-29 01:54:00,
2013-07-28 20:59:00,75.7,61.8,29.98,NE,51,4.9,4.9,62,0.00,,,0.00,VWS V13.01,2013-07-29 01:59:00,
2013-07-28 21:04:00,75.5,61.6,29.98,NNW,344,3.1,4.0,62,0.00,,,0.00,VWS V13.01,2013-07-29 02:04:00,
2013-07-28 21:09:00,75.2,61.7,29.98,NNE,19,3.1,4.0,63,0.00,,,0.00,VWS V13.01,2013-07-29 02:09:00,
2013-07-28 21:14:00,75.0,61.6,29.98,NE,37,4.5,4.5,63,0.00,,,0.00,VWS V13.01,2013-07-29 02:14:00,
2013-07-28 21:20:00,74.6,61.7,29.98,NNE,31,2.7,4.0,64,0.00,,,0.00,VWS V13.01,2013-07-29 02:20:00,
2013-07-28 21:25:00,74.5,61.5,29.98,North,360,3.1,3.1,64,0.00,,,0.00,VWS V13.01,2013-07-29 02:25:00,
2013-07-28 21:30:00,74.3,61.8,29.98,North,358,2.7,3.1,65,0.00,,,0.00,VWS V13.01,2013-07-29 02:30:00,
2013-07-28 21:35:00,74.1,61.6,29.98,NNE,23,3.6,3.6,65,0.00,,,0.00,VWS V13.01,2013-07-29 02:35:00,
2013-07-28 21:40:00,73.9,61.4,29.98,NNE,20,2.7,2.7,65,0.00,,,0.00,VWS V13.01,2013-07-29 02:40:00,
2013-07-28 21:45:00,73.7,61.2,29.98,NNE,33,0.0,0.0,65,0.00,,,0.00,VWS V13.01,2013-07-29 02:45:00,
2013-07-28 21:50:00,73.4,61.3,29.98,NNE,33,0.0,0.0,66,0.00,,,0.00,VWS V13.01,2013-07-29 02:50:00,
2013-07-28 21:56:00,73.2,61.6,29.98,NE,42,2.7,3.6,67,0.00,,,0.00,VWS V13.01,2013-07-29 02:56:00,
2013-07-28 22:01:00,73.0,61.4,29.98,NE,42,0.0,0.0,67,0.00,,,0.00,VWS V13.01,2013-07-29 03:01:00,
2013-07-28 22:06:00,73.0,61.4,29.98,NNE,27,2.2,2.7,67,0.00,,,0.00,VWS V13.01,2013-07-29 03:06:00,
2013-07-28 22:11:00,72.8,61.2,29.98,NNE,27,0.0,0.0,67,0.00,,,0.00,VWS V13.01,2013-07-29 03:11:00,
2013-07-28 22:16:00,72.8,61.2,29.98,NNE,27,0.0,0.0,67,0.00,,,0.00,VWS V13.01,2013-07-29 03:16:00,
2013-07-28 22:21:00,72.7,61.1,29.98,NE,40,2.2,2.2,67,0.00,,,0.00,VWS V13.01,2013-07-29 03:21:00,
2013-07-28 22:26:00,72.7,61.1,29.98,NNE,33,3.6,3.6,67,0.00,,,0.00,VWS V13.01,2013-07-29 03:26:00,
2013-07-28 22:31:00,72.7,61.5,29.98,North,359,2.2,3.1,68,0.00,,,0.00,VWS V13.01,2013-07-29 03:31:00,
2013-07-28 22:37:00,72.7,61.1,29.98,NNE,33,2.2,2.2,67,0.00,,,0.00,VWS V13.01,2013-07-29 03:37:00,
2013-07-28 22:42:00,72.7,61.1,29.98,NNE,33,0.0,0.0,67,0.00,,,0.00,VWS V13.01,2013-07-29 03:42:00,
2013-07-28 22:47:00,72.7,61.1,30.01,North,6,0.0,0.0,67,0.00,,,0.00,VWS V13.01,2013-07-29 03:47:00,
2013-07-28 22:52:00,72.5,61.3,30.01,North,6,0.0,0.0,68,0.00,,,0.00,VWS V13.01,2013-07-29 03:52:00,
2013-07-28 22:57:00,72.3,61.2,30.01,North,6,0.0,0.0,68,0.00,,,0.00,VWS V13.01,2013-07-29 03:57:00,
2013-07-28 23:01:00,72.3,61.6,30.01,NNE,19,0.0,0.0,69,0.00,,,0.00,VWS V13.01,2013-07-29 04:01:00,
2013-07-28 23:06:00,72.3,61.6,30.01,NNE,19,0.0,0.0,69,0.00,,,0.00,VWS V13.01,2013-07-29 04:06:00,
2013-07-28 23:11:00,72.3,61.6,30.01,North,7,0.0,2.7,69,0.00,,,0.00,VWS V13.01,2013-07-29 04:11:00,
2013-07-28 23:16:00,72.1,61.4,30.01,NNE,24,2.7,2.7,69,0.00,,,0.00,VWS V13.01,2013-07-29 04:16:00,
2013-07-28 23:21:00,72.1,61.4,30.01,NNE,23,2.7,2.7,69,0.00,,,0.00,VWS V13.01,2013-07-29 04:21:00,
2013-07-28 23:26:00,72.1,61.4,30.01,North,4,0.0,0.0,69,0.00,,,0.00,VWS V13.01,2013-07-29 04:26:00,
2013-07-28 23:31:00,71.9,61.2,30.01,North,4,0.0,0.0,69,0.00,,,0.00,VWS V13.01,2013-07-29 04:31:00,
2013-07-28 23:36:00,71.6,60.9,30.01,North,4,0.0,0.0,69,0.00,,,0.00,VWS V13.01,2013-07-29 04:36:00,
2013-07-28 23:41:00,71.4,60.7,30.01,North,4,0.0,0.0,69,0.00,,,0.00,VWS V13.01,2013-07-29 04:41:00,
2013-07-28 23:46:00,71.2,60.9,30.01,North,4,0.0,0.0,70,0.00,,,0.00,VWS V13.01,2013-07-29 04:46:00,
2013-07-28 23:51:00,71.2,61.3,30.01,NNE,12,0.0,0.0,71,0.00,,,0.00,VWS V13.01,2013-07-29 04:51:00,
2013-07-28 23:56:00,71.0,61.2,30.01,NNE,12,0.0,0.0,71,0.00,,,0.00,VWS V13.01,2013-07-29 04:56:00,